Location: Austin
(30.3000°N, 97.7500°W)
Time: 00:28:35
(UTC-05:00)

ATLAS 3B R/B - Pass Details

Date: 15 May 2024
Orbit: 943 x 1251 km, 63.8° (Epoch: 19 May)

Event Time Altitude Azimuth Distance (km) Brightness Sun altitude
Rises 23:24:26 0° 336° (NNW) 4,194 6.9 -32.3°
Reaches altitude 10° 23:27:20 10° 341° (NNW) 3,230 6.0 -32.7°
Enters shadow 23:34:53 55° 54° (NE) 1,457 3.3 -33.6°
